QPF
0.01 0.01 0.01 0.01 0.02 0.02 0.02 0.02 0.03 0.03 0.04 0.03 0.04 0.03 0.03 0.04 0.05 0.04 0.03 0.04 0.04 0.04 0.05 0.04 0.05 0.05 0.06 0.08 0.10 0.11 0.11 0.10 0.10 0.10 0.08 0.06 0.03 0.03 0.03 0.03 0.04 0.04 0.03
0.00 0.00 0.01 0.02 0.02 0.02 0.01 0.01 0.02 0.02 0.03 0.03 0.03 0.04 0.03 0.03 0.04 0.04 0.03 0.03 0.03 0.03 0.03 0.05 0.04 0.04 0.05 0.07 0.09 0.10 0.10 0.10 0.10 0.12 0.10 0.07 0.05 0.04 0.02 0.01 0.01 0.02 0.03
0.01 0.00 0.00 0.01 0.02 0.01 0.01 0.02 0.03 0.03 0.02 0.02 0.03 0.04 0.04 0.02 0.02 0.02 0.03 0.02 0.02 0.02 0.03 0.04 0.04 0.04 0.05 0.08 0.10 0.08 0.09 0.09 0.09 0.11 0.13 0.09 0.07 0.05 0.03 0.02 0.02 0.03 0.05
0.01 0.01 0.01 0.01 0.01 0.02 0.02 0.03 0.03 0.03 0.02 0.02 0.02 0.03 0.03 0.02 0.02 0.02 0.03 0.03 0.03 0.02 0.02 0.04 0.05 0.06 0.05 0.07 0.08 0.06 0.07 0.08 0.09 0.09 0.10 0.09 0.08 0.08 0.07 0.04 0.04 0.06 0.06
0.01 0.01 0.01 0.01 0.01 0.02 0.02 0.03 0.02 0.02 0.02 0.02 0.02 0.02 0.02 0.01 0.01 0.02 0.03 0.03 0.03 0.02 0.02 0.05 0.06 0.07 0.06 0.06 0.07 0.08 0.07 0.08 0.09 0.11 0.11 0.11 0.10 0.09 0.08 0.08 0.09 0.08 0.07
0.01 0.02 0.02 0.02 0.02 0.01 0.01 0.01 0.02 0.02 0.02 0.02 0.01 0.01 0.02 0.03 0.02 0.03 0.04 0.04 0.04 0.04 0.04 0.05 0.07 0.07 0.07 0.08 0.09 0.08 0.08 0.08 0.09 0.10 0.10 0.10 0.10 0.09 0.12 0.13 0.11 0.10 0.09
0.01 0.01 0.01 0.01 0.01 0.00 0.01 0.01 0.01 0.02 0.02 0.02 0.01 0.01 0.02 0.04 0.05 0.03 0.04 0.03 0.03 0.05 0.05 0.05 0.06 0.06 0.08 0.08 0.08 0.09 0.10 0.10 0.10 0.10 0.10 0.09 0.10 0.09 0.11 0.13 0.13 0.11 0.09
0.01 0.01 0.00 0.00 0.00 0.00 0.00 0.01 0.01 0.01 0.01 0.01 0.02 0.02 0.02 0.03 0.06 0.05 0.04 0.03 0.03 0.03 0.03 0.04 0.05 0.05 0.06 0.06 0.07 0.07 0.09 0.10 0.10 0.11 0.11 0.10 0.08 0.07 0.07 0.08 0.12 0.12 0.12
0.01 0.01 0.00 0.00 0.00 0.00 0.00 0.00 0.01 0.00 0.01 0.01 0.01 0.01 0.02 0.03 0.04 0.04 0.04 0.03 0.03 0.02 0.03 0.02 0.02 0.03 0.05 0.06 0.08 0.08 0.09 0.08 0.06 0.07 0.08 0.08 0.08 0.07 0.07 0.08 0.09 0.13 0.13
0.00 0.00 0.00 0.00 0.01 0.01 0.01 0.01 0.01 0.01 0.00 0.01 0.01 0.01 0.02 0.04 0.03 0.04 0.03 0.03 0.03 0.03 0.03 0.02 0.02 0.03 0.04 0.06 0.08 0.08 0.08 0.07 0.07 0.09 0.08 0.08 0.07 0.08 0.07 0.07 0.07 0.08 0.08
0.00 0.00 0.00 0.00 0.01 0.01 0.01 0.01 0.01 0.01 0.01 0.01 0.01 0.01 0.01 0.02 0.02 0.02 0.02 0.02 0.02 0.02 0.02 0.02 0.03 0.04 0.04 0.05 0.07 0.08 0.07 0.07 0.08 0.07 0.08 0.11 0.11 0.09 0.07 0.06 0.06 0.05 0.06
0.00 0.01 0.00 0.00 0.00 0.01 0.01 0.01 0.01 0.01 0.01 0.01 0.01 0.01 0.01 0.01 0.01 0.01 0.02 0.01 0.01 0.02 0.02 0.02 0.03 0.03 0.04 0.05 0.05 0.06 0.07 0.09 0.09 0.08 0.09 0.09 0.08 0.06 0.05 0.05 0.05 0.04 0.04
0.00 0.00 0.00 0.01 0.01 0.01 0.01 0.01 0.01 0.01 0.01 0.01 0.01 0.01 0.01 0.01 0.01 0.01 0.01 0.01 0.01 0.03 0.03 0.03 0.04 0.04 0.05 0.05 0.05 0.06 0.09 0.10 0.09 0.08 0.08 0.07 0.07 0.07 0.05 0.04 0.04 0.03 0.02
0.00 0.00 0.00 0.00 0.01 0.01 0.01 0.02 0.01 0.01 0.01 0.01 0.01 0.01 0.01 0.01 0.01 0.01 0.01 0.01 0.02 0.03 0.04 0.03 0.04 0.05 0.04 0.03 0.04 0.05 0.10 0.12 0.13 0.11 0.08 0.07 0.06 0.07 0.06 0.04 0.03 0.03 0.03
0.00 0.00 0.01 0.00 0.01 0.01 0.01 0.01 0.01 0.01 0.01 0.01 0.01 0.01 0.01 0.02 0.01 0.01 0.01 0.02 0.03 0.04 0.05 0.05 0.04 0.03 0.02 0.03 0.04 0.05 0.07 0.08 0.10 0.12 0.11 0.07 0.05 0.05 0.05 0.04 0.05 0.04 0.04
0.00 0.00 0.00 0.01 0.01 0.01 0.01 0.01 0.01 0.01 0.01 0.01 0.01 0.01 0.01 0.02 0.02 0.01 0.01 0.01 0.03 0.04 0.05 0.05 0.04 0.02 0.02 0.02 0.02 0.04 0.05 0.07 0.08 0.11 0.11 0.08 0.06 0.05 0.04 0.04 0.04 0.05 0.05
0.00 0.01 0.02 0.02 0.01 0.01 0.01 0.01 0.01 0.02 0.02 0.01 0.02 0.02 0.02 0.02 0.02 0.02 0.02 0.02 0.02 0.04 0.06 0.06 0.07 0.05 0.04 0.04 0.03 0.03 0.04 0.07 0.07 0.08 0.08 0.06 0.06 0.06 0.04 0.04 0.03 0.04 0.05
0.01 0.01 0.01 0.01 0.01 0.01 0.00 0.01 0.01 0.01 0.01 0.01 0.01 0.02 0.02 0.02 0.02 0.02 0.02 0.02 0.03 0.04 0.06 0.07 0.09 0.10 0.10 0.09 0.07 0.06 0.05 0.06 0.07 0.07 0.06 0.06 0.05 0.03 0.03 0.03 0.03 0.03 0.04
0.01 0.01 0.00 0.00 0.00 0.00 0.00 0.00 0.01 0.01 0.01 0.01 0.01 0.02 0.03 0.03 0.02 0.02 0.02 0.02 0.02 0.03 0.05 0.06 0.07 0.07 0.07 0.07 0.06 0.05 0.04 0.04 0.05 0.06 0.06 0.06 0.06 0.05 0.05 0.04 0.05 0.05 0.05
0.01 0.00 0.00 0.00 0.00 0.00 0.00 0.00 0.01 0.01 0.02 0.02 0.02 0.03 0.04 0.04 0.03 0.03 0.03 0.03 0.02 0.03 0.05 0.05 0.03 0.02 0.01 0.02 0.03 0.03 0.02 0.02 0.02 0.03 0.04 0.05 0.04 0.05 0.06 0.05 0.04 0.04 0.04
0.01 0.01 0.01 0.00 0.00 0.00 0.00 0.01 0.01 0.01 0.02 0.02 0.03 0.03 0.04 0.04 0.04 0.04 0.04 0.02 0.01 0.01 0.02 0.01 0.01 0.01 0.01 0.01 0.02 0.03 0.02 0.02 0.02 0.02 0.02 0.02 0.02 0.02 0.02 0.02 0.02 0.02 0.02
0.02 0.01 0.01 0.00 0.00 0.00 0.00 0.01 0.01 0.01 0.01 0.01 0.02 0.03 0.02 0.02 0.02 0.02 0.02 0.02 0.01 0.01 0.01 0.01 0.02 0.01 0.01 0.02 0.03 0.03 0.03 0.03 0.02 0.03 0.03 0.04 0.03 0.02 0.01 0.01 0.01 0.01 0.01
0.03 0.02 0.01 0.01 0.01 0.00 0.00 0.00 0.00 0.01 0.01 0.01 0.01 0.02 0.02 0.02 0.02 0.02 0.02 0.02 0.02 0.02 0.02 0.03 0.03 0.03 0.03 0.03 0.03 0.03 0.03 0.03 0.03 0.04 0.06 0.06 0.05 0.03 0.02 0.01 0.01 0.01 0.01
0.03 0.03 0.02 0.01 0.01 0.01 0.00 0.01 0.01 0.01 0.02 0.02 0.03 0.03 0.02 0.02 0.02 0.02 0.02 0.02 0.02 0.03 0.04 0.04 0.04 0.05 0.07 0.07 0.05 0.04 0.03 0.04 0.04 0.04 0.05 0.04 0.03 0.03 0.03 0.02 0.01 0.01 0.01
0.03 0.04 0.02 0.01 0.01 0.01 0.01 0.01 0.01 0.01 0.02 0.03 0.04 0.04 0.04 0.03 0.03 0.02 0.02 0.02 0.02 0.02 0.02 0.03 0.04 0.04 0.04 0.06 0.06 0.05 0.03 0.03 0.03 0.03 0.03 0.02 0.02 0.03 0.03 0.02 0.02 0.02 0.02
0.02 0.02 0.02 0.02 0.01 0.02 0.01 0.01 0.01 0.02 0.02 0.03 0.04 0.04 0.03 0.03 0.02 0.02 0.02 0.03 0.03 0.02 0.02 0.03 0.02 0.02 0.02 0.04 0.05 0.07 0.06 0.05 0.05 0.04 0.04 0.03 0.03 0.03 0.03 0.03 0.03 0.02 0.02
MSLP
1016.90 1017.12 1017.26 1017.32 1017.33 1017.31 1017.31 1017.36 1017.47 1017.66 1017.90 1018.16 1018.43 1018.66 1018.84 1018.95 1019.00 1018.99 1018.93 1018.85 1018.74 1018.63 1018.50 1018.36 1018.21 1018.05 1017.90 1017.77 1017.68 1017.67 1017.76 1017.96 1018.27 1018.67 1019.13 1019.58 1019.98 1020.25 1020.35 1020.25 1019.95 1019.49 1018.92
1017.24 1017.58 1017.81 1017.91 1017.92 1017.86 1017.80 1017.77 1017.82 1017.96 1018.18 1018.45 1018.74 1019.00 1019.20 1019.32 1019.36 1019.33 1019.25 1019.14 1019.02 1018.91 1018.80 1018.70 1018.59 1018.47 1018.34 1018.20 1018.08 1018.01 1018.03 1018.18 1018.46 1018.87 1019.38 1019.93 1020.46 1020.89 1021.17 1021.23 1021.08 1020.73 1020.22
1017.52 1017.99 1018.31 1018.48 1018.50 1018.43 1018.33 1018.24 1018.24 1018.33 1018.53 1018.79 1019.08 1019.36 1019.57 1019.69 1019.72 1019.67 1019.56 1019.43 1019.30 1019.19 1019.12 1019.05 1018.98 1018.89 1018.76 1018.60 1018.43 1018.30 1018.25 1018.32 1018.54 1018.93 1019.47 1020.09 1020.74 1021.32 1021.77 1022.01 1022.04 1021.84 1021.45
1017.67 1018.27 1018.70 1018.95 1019.02 1018.95 1018.83 1018.72 1018.68 1018.74 1018.91 1019.16 1019.46 1019.73 1019.95 1020.06 1020.08 1020.00 1019.88 1019.73 1019.60 1019.51 1019.45 1019.42 1019.38 1019.30 1019.18 1018.99 1018.78 1018.58 1018.44 1018.43 1018.59 1018.94 1019.46 1020.12 1020.84 1021.54 1022.13 1022.54 1022.73 1022.70 1022.47
1017.68 1018.40 1018.94 1019.27 1019.40 1019.37 1019.26 1019.14 1019.09 1019.14 1019.30 1019.55 1019.83 1020.11 1020.32 1020.43 1020.43 1020.35 1020.21 1020.06 1019.93 1019.85 1019.82 1019.81 1019.79 1019.73 1019.61 1019.40 1019.15 1018.89 1018.67 1018.58 1018.67 1018.96 1019.44 1020.09 1020.84 1021.59 1022.27 1022.80 1023.13 1023.25 1023.18
1017.55 1018.37 1019.01 1019.42 1019.62 1019.65 1019.58 1019.48 1019.44 1019.50 1019.66 1019.90 1020.19 1020.46 1020.67 1020.78 1020.78 1020.69 1020.55 1020.41 1020.29 1020.22 1020.21 1020.22 1020.22 1020.18 1020.05 1019.84 1019.55 1019.25 1018.98 1018.82 1018.83 1019.04 1019.47 1020.06 1020.78 1021.53 1022.24 1022.82 1023.24 1023.49 1023.56
1017.32 1018.21 1018.92 1019.42 1019.69 1019.78 1019.76 1019.72 1019.71 1019.79 1019.96 1020.22 1020.51 1020.79 1021.00 1021.11 1021.11 1021.03 1020.90 1020.77 1020.66 1020.61 1020.61 1020.63 1020.65 1020.62 1020.50 1020.28 1019.99 1019.67 1019.37 1019.16 1019.10 1019.24 1019.58 1020.09 1020.73 1021.42 1022.09 1022.67 1023.13 1023.44 1023.63
1017.03 1017.97 1018.73 1019.28 1019.62 1019.78 1019.83 1019.84 1019.89 1020.00 1020.21 1020.48 1020.79 1021.07 1021.29 1021.41 1021.42 1021.36 1021.25 1021.13 1021.04 1021.00 1021.01 1021.04 1021.07 1021.04 1020.94 1020.74 1020.46 1020.13 1019.82 1019.59 1019.50 1019.57 1019.81 1020.22 1020.75 1021.34 1021.92 1022.45 1022.89 1023.23 1023.48
1016.74 1017.68 1018.47 1019.06 1019.46 1019.69 1019.80 1019.89 1019.99 1020.16 1020.40 1020.70 1021.02 1021.31 1021.54 1021.68 1021.72 1021.67 1021.58 1021.48 1021.41 1021.38 1021.39 1021.43 1021.46 1021.45 1021.35 1021.18 1020.93 1020.63 1020.34 1020.11 1019.99 1020.01 1020.18 1020.48 1020.88 1021.34 1021.81 1022.24 1022.63 1022.95 1023.23
1016.47 1017.40 1018.19 1018.80 1019.24 1019.53 1019.72 1019.87 1020.04 1020.26 1020.55 1020.88 1021.22 1021.54 1021.78 1021.94 1022.00 1021.98 1021.92 1021.84 1021.78 1021.76 1021.77 1021.81 1021.84 1021.83 1021.76 1021.61 1021.40 1021.15 1020.90 1020.69 1020.57 1020.56 1020.66 1020.87 1021.16 1021.49 1021.83 1022.16 1022.46 1022.75 1023.03
1016.23 1017.13 1017.90 1018.53 1019.00 1019.34 1019.59 1019.82 1020.06 1020.34 1020.68 1021.05 1021.41 1021.75 1022.01 1022.19 1022.28 1022.29 1022.25 1022.20 1022.16 1022.14 1022.16 1022.19 1022.22 1022.21 1022.15 1022.04 1021.88 1021.68 1021.48 1021.32 1021.22 1021.20 1021.26 1021.40 1021.59 1021.81 1022.04 1022.27 1022.49 1022.72 1022.97
1016.01 1016.87 1017.62 1018.25 1018.74 1019.13 1019.46 1019.76 1020.07 1020.42 1020.80 1021.21 1021.60 1021.96 1022.25 1022.45 1022.57 1022.61 1022.60 1022.58 1022.55 1022.55 1022.57 1022.59 1022.62 1022.62 1022.58 1022.50 1022.38 1022.24 1022.10 1021.98 1021.92 1021.91 1021.95 1022.05 1022.17 1022.31 1022.45 1022.59 1022.74 1022.90 1023.11
1015.77 1016.60 1017.34 1017.97 1018.49 1018.93 1019.32 1019.69 1020.08 1020.49 1020.93 1021.37 1021.79 1022.17 1022.48 1022.71 1022.86 1022.94 1022.97 1022.97 1022.98 1022.98 1023.01 1023.04 1023.06 1023.06 1023.04 1022.98 1022.90 1022.82 1022.73 1022.67 1022.65 1022.66 1022.70 1022.77 1022.86 1022.94 1023.02 1023.10 1023.18 1023.30 1023.46
1015.50 1016.31 1017.04 1017.67 1018.23 1018.72 1019.18 1019.63 1020.09 1020.56 1021.05 1021.53 1021.98 1022.38 1022.71 1022.97 1023.15 1023.26 1023.33 1023.38 1023.41 1023.44 1023.48 1023.51 1023.54 1023.55 1023.54 1023.50 1023.46 1023.42 1023.38 1023.36 1023.38 1023.42 1023.47 1023.54 1023.60 1023.65 1023.69 1023.73 1023.78 1023.85 1023.97
1015.16 1015.97 1016.70 1017.36 1017.96 1018.51 1019.04 1019.56 1020.09 1020.62 1021.15 1021.67 1022.14 1022.56 1022.92 1023.20 1023.41 1023.56 1023.68 1023.76 1023.83 1023.89 1023.95 1024.00 1024.03 1024.05 1024.05 1024.04 1024.02 1024.00 1024.01 1024.03 1024.07 1024.14 1024.21 1024.28 1024.34 1024.38 1024.40 1024.42 1024.44 1024.48 1024.57
1014.76 1015.58 1016.33 1017.03 1017.68 1018.30 1018.90 1019.49 1020.08 1020.67 1021.24 1021.78 1022.27 1022.70 1023.07 1023.38 1023.62 1023.81 1023.96 1024.09 1024.20 1024.30 1024.38 1024.44 1024.49 1024.52 1024.53 1024.53 1024.54 1024.55 1024.58 1024.62 1024.70 1024.78 1024.87 1024.95 1025.01 1025.05 1025.07 1025.07 1025.08 1025.11 1025.16
1014.31 1015.14 1015.94 1016.69 1017.40 1018.09 1018.75 1019.41 1020.06 1020.68 1021.28 1021.83 1022.34 1022.78 1023.16 1023.48 1023.74 1023.97 1024.16 1024.33 1024.47 1024.60 1024.71 1024.80 1024.86 1024.90 1024.93 1024.94 1024.96 1024.99 1025.04 1025.11 1025.20 1025.31 1025.41 1025.50 1025.57 1025.62 1025.64 1025.65 1025.65 1025.66 1025.69
1013.82 1014.70 1015.54 1016.34 1017.12 1017.87 1018.60 1019.31 1019.99 1020.65 1021.26 1021.82 1022.32 1022.76 1023.14 1023.47 1023.76 1024.01 1024.23 1024.43 1024.61 1024.77 1024.90 1025.01 1025.09 1025.15 1025.19 1025.22 1025.26 1025.31 1025.38 1025.47 1025.58 1025.69 1025.81 1025.91 1026.00 1026.05 1026.08 1026.09 1026.10 1026.10 1026.12
1013.35 1014.26 1015.15 1016.01 1016.84 1017.64 1018.42 1019.17 1019.88 1020.54 1021.16 1021.71 1022.20 1022.64 1023.02 1023.35 1023.64 1023.91 1024.16 1024.38 1024.59 1024.77 1024.93 1025.06 1025.16 1025.24 1025.30 1025.35 1025.41 1025.48 1025.57 1025.68 1025.81 1025.95 1026.08 1026.19 1026.29 1026.35 1026.39 1026.41 1026.42 1026.42 1026.43
1012.92 1013.86 1014.79 1015.69 1016.56 1017.41 1018.21 1018.98 1019.70 1020.36 1020.96 1021.50 1021.98 1022.40 1022.77 1023.10 1023.41 1023.69 1023.95 1024.20 1024.42 1024.63 1024.81 1024.95 1025.08 1025.17 1025.26 1025.34 1025.42 1025.52 1025.64 1025.78 1025.93 1026.08 1026.23 1026.36 1026.47 1026.54 1026.59 1026.61 1026.62 1026.62 1026.62
1012.58 1013.53 1014.47 1015.40 1016.29 1017.14 1017.96 1018.72 1019.43 1020.08 1020.66 1021.18 1021.64 1022.05 1022.41 1022.75 1023.06 1023.35 1023.63 1023.89 1024.14 1024.36 1024.56 1024.73 1024.87 1025.00 1025.11 1025.22 1025.34 1025.47 1025.62 1025.78 1025.96 1026.13 1026.29 1026.43 1026.54 1026.62 1026.67 1026.69 1026.70 1026.69 1026.68
1012.34 1013.28 1014.21 1015.13 1016.01 1016.86 1017.66 1018.40 1019.08 1019.70 1020.26 1020.76 1021.20 1021.60 1021.96 1022.30 1022.62 1022.93 1023.23 1023.51 1023.78 1024.02 1024.24 1024.43 1024.60 1024.76 1024.90 1025.05 1025.20 1025.36 1025.54 1025.73 1025.92 1026.10 1026.27 1026.42 1026.53 1026.60 1026.64 1026.65 1026.65 1026.63 1026.61
1012.21 1013.11 1014.01 1014.89 1015.74 1016.55 1017.31 1018.02 1018.66 1019.25 1019.78 1020.26 1020.69 1021.09 1021.45 1021.80 1022.14 1022.47 1022.78 1023.09 1023.37 1023.64 1023.89 1024.11 1024.31 1024.50 1024.68 1024.86 1025.04 1025.23 1025.43 1025.63 1025.83 1026.01 1026.17 1026.30 1026.40 1026.46 1026.48 1026.47 1026.45 1026.41 1026.38
1012.20 1013.04 1013.87 1014.69 1015.48 1016.23 1016.94 1017.60 1018.20 1018.75 1019.26 1019.72 1020.14 1020.54 1020.92 1021.28 1021.64 1021.98 1022.32 1022.65 1022.97 1023.26 1023.54 1023.79 1024.02 1024.25 1024.46 1024.66 1024.87 1025.08 1025.28 1025.48 1025.66 1025.83 1025.96 1026.06 1026.13 1026.16 1026.15 1026.12 1026.07 1026.02 1025.97
1012.30 1013.05 1013.79 1014.53 1015.24 1015.93 1016.58 1017.18 1017.74 1018.26 1018.74 1019.18 1019.60 1020.00 1020.38 1020.76 1021.13 1021.50 1021.86 1022.22 1022.56 1022.89 1023.19 1023.48 1023.74 1023.99 1024.23 1024.46 1024.67 1024.88 1025.07 1025.25 1025.40 1025.52 1025.61 1025.67 1025.69 1025.67 1025.63 1025.57 1025.50 1025.43 1025.37
1012.49 1013.14 1013.79 1014.43 1015.07 1015.68 1016.26 1016.82 1017.33 1017.81 1018.26 1018.69 1019.10 1019.49 1019.88 1020.26 1020.64 1021.03 1021.41 1021.78 1022.14 1022.49 1022.82 1023.14 1023.43 1023.71 1023.96 1024.19 1024.40 1024.59 1024.75 1024.88 1024.98 1025.05 1025.08 1025.08 1025.05 1024.99 1024.92 1024.83 1024.75 1024.67 1024.61
Thickness
5801 5801 5798 5796 5793 5789 5786 5783 5780 5777 5775 5774 5772 5769 5767 5766 5766 5764 5761 5760 5759 5758 5757 5758 5756 5755 5754 5752 5752 5751 5748 5747 5747 5745 5744 5745 5747 5746 5745 5745 5745 5744 5742
5801 5800 5799 5797 5795 5791 5787 5784 5781 5779 5777 5775 5773 5771 5769 5768 5767 5765 5762 5760 5759 5758 5758 5756 5756 5755 5753 5751 5750 5748 5748 5748 5748 5745 5742 5739 5740 5741 5745 5744 5743 5742 5742
5803 5801 5800 5798 5797 5793 5790 5788 5784 5781 5779 5777 5775 5772 5769 5769 5768 5765 5763 5761 5759 5758 5757 5756 5755 5754 5754 5751 5750 5748 5747 5746 5747 5748 5744 5739 5737 5738 5740 5741 5741 5740 5739
5809 5806 5804 5801 5799 5797 5795 5790 5786 5783 5781 5778 5776 5772 5769 5767 5766 5765 5764 5762 5760 5758 5757 5756 5754 5753 5753 5751 5750 5750 5748 5746 5745 5746 5746 5745 5744 5737 5734 5736 5738 5737 5736
5815 5811 5809 5806 5803 5801 5798 5793 5789 5785 5782 5780 5776 5773 5771 5770 5769 5767 5763 5761 5761 5758 5757 5755 5753 5752 5752 5750 5749 5748 5747 5747 5746 5745 5744 5742 5741 5740 5735 5730 5732 5734 5735
5820 5816 5814 5810 5806 5804 5800 5796 5790 5786 5783 5780 5778 5774 5771 5769 5767 5764 5762 5762 5761 5759 5757 5755 5753 5751 5751 5749 5748 5747 5746 5746 5744 5743 5743 5741 5739 5737 5736 5732 5729 5728 5730
5822 5818 5815 5810 5807 5804 5801 5797 5792 5787 5785 5781 5779 5776 5773 5770 5766 5764 5763 5762 5761 5759 5756 5755 5751 5750 5749 5748 5747 5745 5745 5744 5742 5741 5741 5741 5740 5739 5736 5733 5730 5726 5726
5824 5821 5818 5814 5810 5806 5802 5799 5794 5789 5786 5783 5780 5778 5775 5773 5771 5767 5765 5763 5762 5760 5757 5754 5751 5749 5748 5748 5746 5745 5744 5742 5740 5740 5738 5738 5737 5737 5735 5732 5728 5722 5721
5824 5822 5820 5817 5812 5808 5804 5801 5796 5791 5787 5785 5782 5779 5776 5773 5771 5768 5766 5764 5761 5760 5756 5753 5751 5748 5746 5745 5744 5742 5741 5740 5739 5738 5737 5736 5735 5734 5734 5732 5730 5724 5717
5823 5821 5819 5816 5814 5810 5806 5802 5797 5792 5789 5786 5783 5781 5777 5774 5771 5768 5765 5763 5760 5758 5755 5752 5749 5746 5744 5743 5741 5740 5739 5737 5736 5734 5733 5732 5733 5731 5730 5729 5728 5726 5721
5821 5818 5818 5816 5814 5811 5806 5800 5796 5792 5788 5786 5783 5780 5777 5774 5771 5768 5765 5762 5759 5756 5753 5750 5747 5744 5742 5740 5738 5738 5736 5735 5733 5732 5731 5728 5727 5727 5726 5725 5724 5722 5719
5820 5818 5816 5814 5811 5808 5804 5799 5795 5791 5788 5785 5782 5778 5775 5772 5769 5767 5764 5761 5757 5755 5751 5748 5745 5743 5740 5738 5736 5734 5733 5731 5730 5728 5727 5725 5724 5721 5721 5720 5718 5717 5714
5814 5813 5811 5809 5806 5804 5801 5798 5794 5791 5788 5784 5780 5776 5773 5770 5767 5764 5761 5758 5755 5753 5750 5746 5743 5740 5738 5735 5733 5731 5729 5727 5726 5724 5722 5720 5718 5716 5715 5714 5714 5712 5711
5807 5807 5804 5802 5801 5799 5797 5794 5791 5789 5785 5781 5777 5772 5769 5766 5763 5761 5757 5754 5752 5749 5746 5743 5740 5737 5734 5732 5729 5727 5724 5722 5720 5718 5716 5715 5713 5711 5710 5709 5707 5706 5704
5800 5800 5798 5796 5795 5793 5791 5789 5786 5783 5781 5777 5773 5769 5765 5762 5759 5756 5753 5750 5748 5746 5743 5739 5736 5733 5730 5727 5725 5722 5720 5717 5714 5712 5710 5708 5705 5703 5703 5703 5701 5699 5698
5794 5793 5792 5791 5789 5787 5785 5783 5780 5778 5775 5771 5768 5765 5761 5758 5754 5751 5748 5745 5742 5740 5737 5734 5730 5727 5724 5719 5717 5716 5714 5711 5708 5705 5704 5702 5699 5696 5694 5692 5690 5690 5689
5790 5789 5787 5784 5783 5783 5781 5777 5775 5773 5769 5766 5762 5759 5755 5752 5749 5747 5743 5739 5736 5733 5730 5727 5724 5720 5715 5711 5709 5707 5707 5705 5702 5700 5698 5697 5694 5692 5690 5686 5683 5682 5679
5786 5785 5783 5780 5779 5778 5776 5773 5770 5767 5764 5760 5756 5753 5750 5746 5743 5740 5736 5733 5731 5727 5724 5721 5718 5714 5708 5704 5702 5700 5701 5699 5696 5693 5691 5689 5687 5685 5683 5682 5679 5677 5673
5781 5780 5779 5777 5774 5772 5770 5768 5764 5761 5758 5754 5750 5747 5745 5741 5738 5734 5730 5727 5724 5721 5718 5715 5711 5708 5703 5697 5695 5693 5695 5692 5689 5686 5684 5681 5679 5675 5674 5675 5672 5669 5666
5775 5773 5773 5771 5767 5765 5764 5760 5756 5753 5750 5747 5744 5741 5738 5735 5732 5727 5724 5721 5718 5715 5712 5708 5705 5702 5698 5691 5689 5687 5691 5687 5684 5680 5676 5671 5669 5666 5665 5666 5663 5660 5658
5767 5767 5765 5762 5759 5758 5756 5752 5749 5745 5743 5741 5738 5734 5732 5729 5725 5721 5718 5714 5712 5708 5705 5701 5698 5695 5690 5685 5682 5680 5683 5682 5678 5675 5671 5665 5659 5657 5655 5655 5654 5651 5650
5759 5758 5756 5753 5751 5750 5748 5744 5740 5739 5737 5734 5730 5728 5725 5723 5719 5714 5711 5708 5705 5701 5698 5694 5691 5688 5683 5679 5674 5672 5671 5671 5669 5667 5664 5657 5651 5649 5647 5646 5643 5641 5641
5749 5750 5747 5744 5742 5741 5740 5736 5733 5732 5728 5724 5721 5718 5716 5714 5711 5707 5704 5701 5698 5697 5694 5690 5686 5683 5678 5673 5668 5664 5662 5660 5660 5657 5652 5648 5644 5642 5640 5637 5635 5634 5635
5740 5740 5738 5735 5732 5732 5731 5728 5726 5723 5720 5716 5712 5709 5707 5704 5701 5699 5697 5695 5693 5690 5687 5684 5680 5677 5673 5669 5664 5661 5656 5652 5651 5648 5643 5639 5637 5635 5632 5631 5630 5629 5627
5731 5731 5728 5726 5724 5723 5722 5720 5718 5716 5712 5708 5705 5702 5700 5696 5692 5688 5685 5684 5680 5679 5677 5676 5674 5670 5665 5657 5653 5653 5651 5647 5644 5642 5640 5637 5635 5632 5630 5627 5624 5622 5620
5721 5720 5719 5718 5716 5715 5713 5711 5710 5708 5705 5701 5698 5697 5694 5689 5686 5681 5676 5668 5668 5665 5663 5661 5660 5657 5651 5646 5644 5641 5638 5635 5633 5633 5634 5631 5629 5626 5623 5621 5618 5614 5611